Location: Bun Machan
(52.1403°N, 7.3744°W)
Time: 18:02:22
(UTC+00:00)

Cosmos 1378 - Pass Details

Date: 14 July 2020
Orbit: 493 x 501 km, 82.5° (Epoch: 12 August)

Event Time Altitude Azimuth Distance (km) Brightness Sun altitude
Rises 03:24:13 0° 348° (NNW) 2,610 7.4 -7.6°
Reaches altitude 10° 03:26:21 10° 347° (NNW) 1,721 6.4 -7.4°
Maximum altitude 03:30:07 79° 260° (W) 519 3.1 -7.0°
Drops below altitude 10° 03:33:51 10° 175° (S) 1,707 5.4 -6.6°
Sets 03:35:57 0° 174° (S) 2,585 6.3 -6.4°
